Location: Tabor
(49.4170°N, 14.6670°E)
Time: 10:16:54
(UTC+02:00)

ISS - Pass Details

Date: 27 May 2021
Orbit: 417 x 422 km, 51.6° (Epoch: 13 June)

Event Time Altitude Azimuth Distance (km) Brightness Sun altitude
Rises 22:14:14 0° 289° (WNW) 2,367 1.1 -10.3°
Reaches altitude 10° 22:16:21 10° 286° (WNW) 1,501 -0.1 -10.5°
Maximum altitude 22:19:41 60° 206° (SSW) 484 -3.6 -10.8°
Enters shadow 22:22:05 17° 129° (SE) 1,136 -2.2 -11.1°
